TimePDT,TemperatureF,Dew PointF,Humidity,Sea Level PressureIn,VisibilityMPH,Wind Direction,Wind SpeedMPH,Gust SpeedMPH,PrecipitationIn,Events,Conditions,WindDirDegrees,DateUTC
12:53 AM,48.9,36.0,61,29.85,10.0,SSW,8.1,-,N/A,,Clear,210,2012-05-01 07:53:00
1:53 AM,46.9,32.0,56,29.83,10.0,South,5.8,-,N/A,,Clear,190,2012-05-01 08:53:00
2:53 AM,41.0,32.0,70,29.96,10.0,Calm,Calm,-,N/A,,Clear,0,2012-05-01 09:53:00
3:53 AM,37.0,30.0,76,29.86,10.0,Calm,Calm,-,N/A,,Clear,0,2012-05-01 10:53:00
4:53 AM,36.0,30.0,79,29.86,10.0,SSW,3.5,-,N/A,,Clear,200,2012-05-01 11:53:00
5:53 AM,36.0,30.0,79,29.86,10.0,Calm,Calm,-,N/A,,Clear,0,2012-05-01 12:53:00
6:53 AM,36.0,28.9,76,29.87,10.0,South,5.8,-,N/A,,Clear,180,2012-05-01 13:53:00
7:53 AM,45.0,33.1,63,29.85,10.0,East,4.6,-,N/A,,Clear,80,2012-05-01 14:53:00
8:53 AM,50.0,30.9,48,29.84,10.0,NNE,8.1,-,N/A,,Clear,30,2012-05-01 15:53:00
9:53 AM,54.0,28.9,38,29.83,10.0,Variable,3.5,-,N/A,,Clear,0,2012-05-01 16:53:00
10:53 AM,57.9,18.0,21,29.81,10.0,SW,9.2,20.7,N/A,,Clear,220,2012-05-01 17:53:00
11:53 AM,57.2,19.4,23,29.95,10.0,WSW,9.2,19.6,N/A,,Clear,240,2012-05-01 18:53:00
12:53 PM,60.8,21.2,22,29.93,10.0,SSW,11.5,26.5,N/A,,Clear,210,2012-05-01 19:53:00
1:53 PM,60.1,21.9,23,29.79,10.0,Variable,6.9,19.6,N/A,,Clear,0,2012-05-01 20:53:00
2:53 PM,60.1,25.0,26,29.81,10.0,SSW,13.8,28.8,N/A,,Clear,210,2012-05-01 21:53:00
3:53 PM,60.1,30.0,32,29.81,10.0,South,15.0,28.8,N/A,,Partly Cloudy,190,2012-05-01 22:53:00
4:53 PM,57.0,25.0,29,29.82,10.0,South,12.7,27.6,N/A,,Clear,180,2012-05-01 23:53:00
5:53 PM,55.0,26.1,33,29.84,10.0,SSW,8.1,24.2,N/A,,Clear,200,2012-05-02 00:53:00
6:53 PM,53.1,21.9,30,29.86,10.0,South,12.7,23.0,N/A,,Clear,190,2012-05-02 01:53:00
7:53 PM,50.0,27.0,41,29.85,10.0,SSW,8.1,17.3,N/A,,Clear,200,2012-05-02 02:53:00
8:53 PM,46.9,27.0,46,29.84,10.0,SSW,9.2,-,N/A,,Clear,210,2012-05-02 03:53:00
9:53 PM,46.0,21.0,37,29.84,10.0,SSW,8.1,-,N/A,,Clear,210,2012-05-02 04:53:00
10:53 PM,44.1,14.0,30,29.82,10.0,Calm,Calm,-,N/A,,Clear,0,2012-05-02 05:53:00
11:53 PM,41.0,12.0,31,29.82,10.0,South,4.6,-,N/A,,Clear,180,2012-05-02 06:53:00